STARLINK-35334, 66450

Orbit data source: Space-Track

STARLINK-35334, 66450 is a payload satellite owned by SpaceX/Seattle (US) in LEO that was launched on Tue, 11 Nov 2025 UTC via an FALCON 9 launch vehicle from the Air Force Eastern Test Range (AFETR). Payload-class satellites include a variety of spacecraft equipped with specific instruments for various scientific and technological missions. These include communications satellites like Starlink; space stations such as the ISS; scientific satellites like the Hubble; Earth observation satellites from companies like Planet Labs, Umbra, and HawkEye 360; GPS; miniature CubeSats for education and research; and military/defense satellites.

Loading next visibility...
Identifier
66450, 2025-259AE
Orbit
LEO
Country
Flag of USUS
Related business
Manufacturer
SpaceX/Seattle
Mission
Operational Commercial Communications
Bus & Motor
STARLINK V2MO, Unknown motor
Mass
575 kg wet, ~530 kg dry
Launch date (UTC)
2025-11-11 (7 months ago)
Launch vehicle
FALCON 9
Launch site
Air Force Eastern Test Range (AFETR)
Object type
Payload
Rocket body
Debris
Shape & HBR
Box + 2 Pan, 17.7 m
Radar Cross Section
36.964 m², Large (>1 m²)

Expand to show TLE details & history
Last TLE update: 13 hours ago

TLE from 13 hours ago
0 STARLINK-35334
1 66450U 25259AE  26150.12898499  .00021522  00000-0  78895-3 0  9990
2 66450  42.9989 174.6481 0001436 210.8972 149.1796 15.27595206 31944
Epoch: 2026-05-30T03:05Z
TLE epoch observation values (Epoch: 2026-05-30T03:05:44.303Z)
Latitude
0.00004°
Longitude
-119.4359°
Altitude
483.625 km
Speed
7.625 km/s
True Right ascension
11h 38m 35s
True Declination
0° 00' 00"
Sunlit
Object was in daylight at epoch
Visualization orbit readout
Latitude
Unknown
Longitude
Unknown
Altitude
Unknown
Speed
Unknown
Apparent Right ascension
Unknown
Apparent Declination
Unknown
Sunlit
N/A
Visualization observer readout
Local Sidereal Time
02:00:32
Azimuth
Unknown
Elevation
Unknown
Doppler factor
Unknown
Orbital elements
Apogee altitude
485.934 km
Perigee altitude
483.963 km
Semi-major axis
6,863.086 km
Eccentricity
0.00014
Inclination
42.9989°
RAAN
174.6481°
Arg. of periapsis
210.8972°
True anomaly
149.18803°
Mean anomaly
149.1796°
Eccentric anomaly
149.18381°
Mean motion
3.81737 °/min
Orbital period
94.31 mins
BSTAR
0.00078895
Loading maneuver chart data...
Computing Atmospheric mass density...
Loading historical data...
Loading historical data...
Loading historical data...
Loading historical data...
Loading historical data...
Loading historical data...
Loading historical data...

Documentation

Showing up to 5 results
|